星链-3538 (STARLINK-3538 )

导读

STARLINK-3538是美国太空探索技术公司星链星座中的卫星,于2022年3月9日发射。星链项目旨在构建全球卫星互联网星座,为全球提供高速宽带互联网服务,尤其服务偏远地区和网络基础设施匮乏区域,该卫星入轨后承担相应的通信覆盖任务,推进星链星座全球组网进程。

Basic Information
目录编号:
51996
目录名称:
STARLINK-3538
国际标识:
2022-025AS
轨道中心:
EARTH
卫星名称:
星链-3538
卫星全名:
星链-3538 (STARLINK-3538 )
卫星状态:
在轨 (已飞行1561 天)
发射日期:
2022-03-09 UTC
国别 :
美国 (US)
星等 :
--
Orbit Information
数据来源 国际轨道数据 AOE轨道数据
星历时间 2026-06-17T19:38:36+0800
7小时前
查看轨道信息
2026-06-12T07:00:00+0800
5天前
查看轨道信息
半长轴 6917.977km 6917.921km
偏心率 0.000098 0.000122
轨道倾角 53.159° 53.156°
近地点辐角 110.177° 107.544°
升交点赤经 291.016° 315.869°
平近点角 249.933° 95.737°
近地点 539.162km 538.94km
远地点 540.518km 540.628km
周期 95.440分钟 95.438分钟
每日圈数 15.088087 15.08827
Detailed Information
固有亮度:
5
最大亮度:
2.5
卫星平台:
Starlink v1.5
覆盖范围:
全球
运营商:
太空探索技术公司
运营商所在国:
美国
制造商(研发单位):
太空探索技术公司
制造商所在国:
美国
使用方式:
暂无
Satellite Introduction
星链(Starlink)计划是由太空探索技术公司(SpaceX)提出的一个巨型低轨卫星互联网星座项目,计划在2019年至2024年间在太空搭建由约1.2万颗卫星组成的“星链”网络,其中1584颗将部署在地球上空550千米处的近地轨道,并从2020年开始工作。该卫星仍在工作。
2D Orbit Map
3D Orbit Map
Orbit Altitude Analysis Chart
Orbit Inclination Analysis Chart
Orbit Comprehensive Analysis Chart
View Comprehensive Chart